TimeCST,TemperatureF,Dew PointF,Humidity,Sea Level PressureIn,VisibilityMPH,Wind Direction,Wind SpeedMPH,Gust SpeedMPH,PrecipitationIn,Events,Conditions,WindDirDegrees,DateUTC
12:15 AM,12.2,5.0,73,30.33,10.0,NNW,17.3,-,N/A,,Overcast,330,2012-11-23 06:15:00
12:35 AM,12.2,5.0,73,30.34,10.0,NNW,17.3,25.3,N/A,,Overcast,330,2012-11-23 06:35:00
12:55 AM,12.2,5.0,73,30.34,10.0,NNW,23.0,28.8,N/A,,Overcast,340,2012-11-23 06:55:00
1:15 AM,10.4,3.2,73,30.35,10.0,NNW,20.7,26.5,N/A,,Overcast,330,2012-11-23 07:15:00
1:35 AM,10.4,3.2,73,30.36,10.0,NNW,18.4,26.5,N/A,,Overcast,330,2012-11-23 07:35:00
1:55 AM,10.4,3.2,73,30.37,10.0,NNW,19.6,26.5,N/A,,Overcast,340,2012-11-23 07:55:00
2:15 AM,10.4,3.2,73,30.37,10.0,NNW,18.4,25.3,N/A,,Overcast,330,2012-11-23 08:15:00
2:35 AM,10.4,3.2,73,30.39,10.0,NNW,19.6,29.9,N/A,,Overcast,330,2012-11-23 08:35:00
2:55 AM,10.4,3.2,73,30.40,10.0,NNW,18.4,23.0,N/A,,Overcast,330,2012-11-23 08:55:00
3:15 AM,8.6,3.2,79,30.41,10.0,NNW,16.1,-,N/A,,Overcast,330,2012-11-23 09:15:00
3:35 AM,8.6,3.2,79,30.41,9.0,NNW,15.0,-,N/A,,Overcast,330,2012-11-23 09:35:00
3:55 AM,8.6,3.2,79,30.41,10.0,NNW,19.6,24.2,N/A,,Overcast,330,2012-11-23 09:55:00
4:15 AM,8.6,3.2,79,30.41,9.0,NNW,19.6,-,N/A,,Overcast,330,2012-11-23 10:15:00
4:35 AM,8.6,1.4,73,30.41,9.0,NNW,19.6,23.0,N/A,,Overcast,330,2012-11-23 10:35:00
4:55 AM,8.6,3.2,79,30.41,8.0,NNW,17.3,-,N/A,,Overcast,330,2012-11-23 10:55:00
5:15 AM,8.6,3.2,79,30.42,8.0,NNW,16.1,-,N/A,,Overcast,330,2012-11-23 11:15:00
5:35 AM,8.6,1.4,73,30.42,10.0,NNW,17.3,-,N/A,,Overcast,330,2012-11-23 11:35:00
5:55 AM,8.6,3.2,79,30.43,10.0,NW,15.0,-,N/A,,Overcast,320,2012-11-23 11:55:00
6:15 AM,8.6,3.2,79,30.44,10.0,NW,13.8,-,N/A,,Overcast,320,2012-11-23 12:15:00
6:35 AM,8.6,3.2,79,30.44,10.0,NW,12.7,-,N/A,,Overcast,310,2012-11-23 12:35:00
6:55 AM,8.6,1.4,73,30.44,9.0,NW,15.0,-,N/A,,Overcast,310,2012-11-23 12:55:00
7:15 AM,8.6,1.4,73,30.44,10.0,NW,16.1,-,N/A,,Overcast,310,2012-11-23 13:15:00
7:35 AM,6.8,1.4,79,30.44,10.0,NW,13.8,-,N/A,,Overcast,310,2012-11-23 13:35:00
7:55 AM,6.8,1.4,79,30.44,10.0,NW,15.0,-,N/A,,Overcast,310,2012-11-23 13:55:00
8:15 AM,6.8,1.4,79,30.44,10.0,WNW,12.7,-,N/A,,Overcast,300,2012-11-23 14:15:00
8:35 AM,6.8,1.4,79,30.44,10.0,NW,15.0,-,N/A,,Overcast,310,2012-11-23 14:35:00
8:55 AM,6.8,-0.4,72,30.45,10.0,WNW,12.7,-,N/A,,Overcast,300,2012-11-23 14:55:00
9:15 AM,6.8,-0.4,72,30.46,10.0,NW,10.4,-,N/A,,Mostly Cloudy,310,2012-11-23 15:15:00
9:35 AM,6.8,1.4,79,30.46,10.0,NW,12.7,-,N/A,,Mostly Cloudy,320,2012-11-23 15:35:00
9:55 AM,6.8,1.4,79,30.47,10.0,WNW,12.7,-,N/A,,Overcast,300,2012-11-23 15:55:00
10:15 AM,6.8,1.4,79,30.48,10.0,WNW,12.7,-,N/A,,Overcast,300,2012-11-23 16:15:00
10:35 AM,6.8,1.4,79,30.48,10.0,NW,12.7,-,N/A,,Overcast,320,2012-11-23 16:35:00
10:55 AM,6.8,-0.4,72,30.48,8.0,NW,11.5,-,N/A,,Overcast,320,2012-11-23 16:55:00
11:15 AM,6.8,-0.4,72,30.47,9.0,NW,10.4,-,N/A,,Overcast,310,2012-11-23 17:15:00
11:35 AM,6.8,1.4,79,30.47,10.0,NW,9.2,-,N/A,,Mostly Cloudy,310,2012-11-23 17:35:00
11:55 AM,6.8,1.4,79,30.46,7.0,North,10.4,-,N/A,,Mostly Cloudy,350,2012-11-23 17:55:00
12:15 PM,6.8,1.4,79,30.46,8.0,NNW,10.4,-,N/A,,Overcast,340,2012-11-23 18:15:00
12:35 PM,6.8,-0.4,72,30.46,10.0,NNW,9.2,-,N/A,,Overcast,330,2012-11-23 18:35:00
12:55 PM,6.8,-0.4,72,30.45,6.0,North,6.9,-,N/A,,Overcast,360,2012-11-23 18:55:00
1:15 PM,6.8,1.4,79,30.44,7.0,NNW,8.1,-,N/A,,Overcast,340,2012-11-23 19:15:00
1:35 PM,8.6,-0.4,67,30.44,10.0,NW,6.9,-,N/A,,Mostly Cloudy,310,2012-11-23 19:35:00
1:55 PM,8.6,1.4,73,30.44,10.0,NNW,5.8,-,N/A,,Mostly Cloudy,330,2012-11-23 19:55:00
2:15 PM,6.8,1.4,79,30.44,9.0,NNW,5.8,-,N/A,,Overcast,330,2012-11-23 20:15:00
2:35 PM,6.8,-0.4,72,30.43,10.0,WNW,8.1,-,N/A,,Scattered Clouds,290,2012-11-23 20:35:00
2:55 PM,6.8,1.4,79,30.43,10.0,NW,6.9,-,N/A,,Partly Cloudy,310,2012-11-23 20:55:00
3:15 PM,8.6,1.4,73,30.43,10.0,WNW,8.1,-,N/A,,Partly Cloudy,300,2012-11-23 21:15:00
3:35 PM,6.8,-0.4,72,30.43,10.0,NW,6.9,-,N/A,,Clear,320,2012-11-23 21:35:00
3:55 PM,6.8,-0.4,72,30.42,10.0,NW,6.9,-,N/A,,Clear,310,2012-11-23 21:55:00
4:15 PM,6.8,-0.4,72,30.41,10.0,NNW,5.8,-,N/A,,Clear,340,2012-11-23 22:15:00
4:35 PM,6.8,-0.4,72,30.41,10.0,NNW,4.6,-,N/A,,Clear,330,2012-11-23 22:35:00
4:55 PM,6.8,-0.4,72,30.42,10.0,NW,5.8,-,N/A,,Clear,320,2012-11-23 22:55:00
5:15 PM,6.8,-0.4,72,30.41,10.0,NW,3.5,-,N/A,,Clear,320,2012-11-23 23:15:00
5:35 PM,6.8,-0.4,72,30.41,10.0,NW,3.5,-,N/A,,Clear,310,2012-11-23 23:35:00
5:55 PM,3.2,-4.0,72,30.40,10.0,NNE,3.5,-,N/A,,Clear,30,2012-11-23 23:55:00
6:15 PM,3.2,-0.4,85,30.39,10.0,NE,3.5,-,N/A,,Clear,40,2012-11-24 00:15:00
6:35 PM,3.2,-0.4,85,30.38,10.0,ENE,4.6,-,N/A,,Clear,60,2012-11-24 00:35:00
6:55 PM,3.2,-0.4,85,30.37,10.0,ENE,4.6,-,N/A,,Clear,70,2012-11-24 00:55:00
7:15 PM,3.2,-2.2,78,30.36,10.0,East,4.6,-,N/A,,Clear,90,2012-11-24 01:15:00
7:35 PM,3.2,-2.2,78,30.36,10.0,East,3.5,-,N/A,,Clear,90,2012-11-24 01:35:00
7:55 PM,3.2,-2.2,78,30.36,10.0,East,3.5,-,N/A,,Clear,90,2012-11-24 01:55:00
8:15 PM,3.2,-0.4,85,30.36,10.0,East,3.5,-,N/A,,Clear,80,2012-11-24 02:15:00
8:35 PM,3.2,-2.2,78,30.35,10.0,East,5.8,-,N/A,,Clear,80,2012-11-24 02:35:00
8:55 PM,1.4,-2.2,85,30.34,10.0,East,4.6,-,N/A,,Clear,80,2012-11-24 02:55:00
9:15 PM,1.4,-2.2,85,30.34,10.0,East,4.6,-,N/A,,Clear,100,2012-11-24 03:15:00
9:35 PM,3.2,-0.4,85,30.33,10.0,ESE,6.9,-,N/A,,Clear,110,2012-11-24 03:35:00
9:55 PM,3.2,-0.4,85,30.32,10.0,East,5.8,-,N/A,,Clear,100,2012-11-24 03:55:00
10:15 PM,3.2,-0.4,85,30.30,10.0,ESE,6.9,-,N/A,,Clear,110,2012-11-24 04:15:00
10:35 PM,3.2,1.4,92,30.30,10.0,ESE,8.1,-,N/A,,Clear,110,2012-11-24 04:35:00
10:55 PM,5.0,-0.4,78,30.29,10.0,ESE,6.9,-,N/A,,Clear,110,2012-11-24 04:55:00
11:15 PM,5.0,1.4,85,30.28,10.0,ESE,8.1,-,N/A,,Partly Cloudy,110,2012-11-24 05:15:00
11:35 PM,6.8,1.4,79,30.26,7.0,ESE,9.2,-,N/A,,Mostly Cloudy,120,2012-11-24 05:35:00
11:55 PM,6.8,1.4,79,30.26,6.0,ESE,6.9,-,N/A,,Overcast,120,2012-11-24 05:55:00